Home   Weather   Frankenthal (Pfalz)   Past weeks

Flag for Germany Past Weather in Frankenthal (Pfalz), Rhineland-Palatinate, Germany — Yesterday and Last 2 Weeks

Now
48 °F

Overcast.


Feels Like: 43 °F
Forecast: 48 / 53 °F
Wind: 10 mph from West

Location: Wiesbaden Airport

Current Time: Feb 20, 2017 at 9:27:51 pm

Latest Report: Feb 20, 2017 at 8:58 pm


Visibility: N/A

Pressure: 30.03 "Hg

Humidity: 89%

Dew Point: 45 °F

Location of Frankenthal (Pfalz)Location

Past Weather in Frankenthal (Pfalz) — Graph

°F

Frankenthal (Pfalz) Temperature Yesterday

Maximum temperature yesterday: 47 °F (at 3:58 pm)
Minimum temperature yesterday: 28 °F (at 3:58 am)
Average temperature yesterday: 39 °F

High & Low Weather Summary for the Past Weeks

 TemperatureHumidityPressure
High50 °F (Feb 16, 3:58 pm)100% (Feb 16, 7:22 am)30.62 "Hg (Feb 16, 7:22 am)
Low27 °F (Feb 15, 3:58 am)43% (Feb 14, 2:58 pm)29.69 "Hg (Feb 5, 8:58 pm)
Average39 °F78%30.27 "Hg
* Reported Feb 5 8:58 pm — Feb 20 8:37 pm, Frankenthal (Pfalz), Weather by CustomWeather, © 2017

Note: Actual official high and low records may vary slightly from our data, if they occured in-between our weather recording intervals... More about our weather records

Advertising

Frankenthal (Pfalz) Weather History for the Previous 24 Hours

Scroll right to see more
 ConditionsComfort  
Time TempWeatherWind HumidityBarometerVisibility
8:37 pm
Mon, Feb 20
48 °FMostly cloudy.10 mph87%30.03 "HgN/A
7:58 pm48 °FOvercast.13 mph87%30.04 "HgN/A
7:27 pm48 °FOvercast.9 mph87%30.03 "HgN/A
6:58 pm46 °FOvercast.10 mph93%30.06 "HgN/A
6:34 pm46 °FLow clouds.8 mph93%30.04 "HgN/A
6:23 pm46 °FLight rain. Mostly cloudy.13 mph93%30.04 "HgN/A
5:58 pm47 °FOvercast.12 mph94%30.05 "HgN/A
5:34 pm46 °FLight rain. Low clouds.9 mph93%30.03 "HgN/A
5:18 pm46 °FLight rain. Fog.8 mph93%30.03 "Hg6 mi
4:58 pm46 °FLight rain. Fog.10 mph93%30.06 "Hg5 mi
4:14 pm48 °FLight rain. Fog.10 mph87%30.05 "HgN/A
3:58 pm48 °FOvercast.10 mph86%30.06 "HgN/A
3:29 pm48 °FOvercast.13 mph87%30.06 "HgN/A
2:58 pm48 °FLight rain. Overcast.13 mph82%30.09 "HgN/A
2:41 pm48 °FLight rain. Overcast.12 mph82%30.07 "HgN/A
1:58 pm49 °FOvercast.20 mph78%30.09 "HgN/A
12:58 pm49 °FOvercast.18 mph77%30.11 "HgN/A
12:33 pm50 °FOvercast.15 mph76%30.11 "HgN/A
11:58 am48 °FOvercast.14 mph80%30.14 "HgN/A
10:58 am46 °FOvercast.10 mph86%30.17 "HgN/A
10:09 am46 °FOvercast.8 mph82%30.17 "HgN/A
9:58 am46 °FOvercast.10 mph82%30.18 "HgN/A
9:30 am45 °FOvercast.12 mph87%30.16 "HgN/A
9:15 am45 °FMostly cloudy.10 mph87%30.16 "HgN/A
8:58 am44 °FOvercast.9 mph87%30.18 "HgN/A
8:23 am43 °FMore clouds than sun.7 mph87%30.16 "HgN/A
7:58 am43 °FMore clouds than sun.No wind87%30.18 "HgN/A
6:58 am41 °FOvercast.3 mph90%30.17 "HgN/A
5:58 am43 °FOvercast.No wind87%30.18 "HgN/A
4:58 am43 °FOvercast.6 mph87%30.18 "HgN/A
3:58 am43 °FOvercast.No wind86%30.18 "HgN/A
2:58 am44 °FOvercast.No wind87%30.19 "HgN/A
1:58 am45 °FOvercast.6 mph81%30.20 "HgN/A
12:58 am44 °FMostly cloudy.3 mph81%30.21 "HgN/A
11:58 pm
Sun, Feb 19
45 °FOvercast.3 mph81%30.20 "HgN/A
10:58 pm43 °FOvercast.No wind87%30.21 "HgN/A
9:58 pm44 °FMostly cloudy.3 mph81%30.21 "HgN/A
9:08 pm45 °FOvercast.5 mph76%30.18 "HgN/A
Weather by CustomWeather, © 2017

See weather overviewHow to use our weather pages